{"data":{"norad_id":65232,"epoch":"2026-05-25T03:12:23.877216Z","epoch_age_seconds":66579,"freshness":"FRESH","line1":"1 65232U 25178E   26145.13360969  .00000061  00000+0  10899-3 0  9992","line2":"2 65232  86.5002  21.2826 0001659  87.1638 272.9686 13.24411153 37269","mean_motion":13.24411153,"eccentricity":0.0001659,"inclination_deg":86.5002,"raan_deg":21.2826,"arg_perigee_deg":87.1638,"mean_anomaly_deg":272.9686,"bstar":0.00010899,"rev_number":3726,"period_min":108.72756520799,"perigee_km":1166.6659155239,"apogee_km":1169.1696965086,"semimajor_km":7546.0548060162,"source":"CELESTRAK","updated_at":"2026-05-25T13:38:05.253644Z"}}